TimeCST,TemperatureF,Dew PointF,Humidity,Sea Level PressureIn,VisibilityMPH,Wind Direction,Wind SpeedMPH,Gust SpeedMPH,PrecipitationIn,Events,Conditions,WindDirDegrees,DateUTC
12:15 AM,32.9,30.2,90,29.77,7.0,SW,4.6,-,N/A,,Overcast,220,2013-02-14 06:15:00
12:35 AM,32.9,30.2,90,29.76,7.0,SSW,4.6,-,N/A,,Overcast,210,2013-02-14 06:35:00
12:55 AM,32.9,30.6,91,29.76,7.0,SSW,3.5,-,N/A,,Overcast,200,2013-02-14 06:55:00
1:15 AM,33.1,30.7,91,29.76,7.0,SSW,5.8,-,N/A,,Overcast,210,2013-02-14 07:15:00
1:35 AM,32.9,30.6,91,29.76,7.0,SSW,4.6,-,N/A,,Mostly Cloudy,210,2013-02-14 07:35:00
1:55 AM,32.4,30.2,92,29.76,7.0,South,3.5,-,N/A,,Scattered Clouds,190,2013-02-14 07:55:00
2:15 AM,32.2,30.2,92,29.75,7.0,SSW,4.6,-,N/A,,Scattered Clouds,200,2013-02-14 08:15:00
2:35 AM,32.4,30.6,93,29.75,7.0,South,4.6,-,N/A,,Overcast,190,2013-02-14 08:35:00
2:55 AM,32.4,30.6,93,29.75,7.0,SSW,4.6,-,N/A,,Overcast,200,2013-02-14 08:55:00
3:15 AM,32.5,30.6,92,29.74,7.0,South,5.8,-,N/A,,Overcast,180,2013-02-14 09:15:00
3:35 AM,32.5,30.2,91,29.74,7.0,South,6.9,-,N/A,,Overcast,190,2013-02-14 09:35:00
3:55 AM,32.9,30.2,90,29.74,7.0,South,5.8,-,N/A,,Overcast,190,2013-02-14 09:55:00
4:15 AM,32.9,30.2,90,29.73,7.0,South,6.9,-,N/A,,Overcast,180,2013-02-14 10:15:00
4:35 AM,32.9,30.2,90,29.73,7.0,South,6.9,-,N/A,,Overcast,190,2013-02-14 10:35:00
4:55 AM,33.3,30.2,89,29.72,10.0,South,8.1,-,N/A,,Overcast,190,2013-02-14 10:55:00
5:15 AM,33.8,30.2,87,29.72,10.0,South,9.2,-,N/A,,Overcast,190,2013-02-14 11:15:00
5:35 AM,33.8,30.2,87,29.71,10.0,South,6.9,-,N/A,,Overcast,180,2013-02-14 11:35:00
5:55 AM,34.0,30.0,85,29.70,10.0,South,9.2,-,N/A,,Overcast,190,2013-02-14 11:55:00
6:15 AM,34.0,29.7,84,29.69,10.0,South,8.1,-,N/A,,Overcast,180,2013-02-14 12:15:00
6:35 AM,34.2,29.7,84,29.69,10.0,SSW,8.1,-,N/A,,Overcast,200,2013-02-14 12:35:00
6:55 AM,34.2,29.8,84,29.69,10.0,SSW,9.2,-,N/A,,Mostly Cloudy,200,2013-02-14 12:55:00
7:15 AM,34.2,30.2,85,29.69,10.0,SSW,9.2,-,N/A,,Mostly Cloudy,200,2013-02-14 13:15:00
7:35 AM,34.3,30.7,87,29.70,10.0,SSW,9.2,19.6,N/A,,Mostly Cloudy,200,2013-02-14 13:35:00
7:55 AM,34.5,31.1,87,29.70,10.0,SSW,11.5,17.3,N/A,,Scattered Clouds,210,2013-02-14 13:55:00
8:15 AM,35.1,31.1,85,29.70,10.0,SW,15.0,20.7,N/A,,Mostly Cloudy,220,2013-02-14 14:15:00
8:35 AM,35.8,31.8,86,29.70,10.0,SW,15.0,-,N/A,,Mostly Cloudy,220,2013-02-14 14:35:00
8:55 AM,36.5,31.6,83,29.70,10.0,SW,17.3,21.9,N/A,,Scattered Clouds,220,2013-02-14 14:55:00
9:15 AM,36.3,31.8,84,29.70,10.0,SW,16.1,-,N/A,,Scattered Clouds,220,2013-02-14 15:15:00
9:35 AM,36.9,32.0,83,29.71,10.0,WSW,13.8,-,N/A,,Mostly Cloudy,240,2013-02-14 15:35:00
9:55 AM,38.1,32.0,79,29.71,10.0,WSW,17.3,21.9,N/A,,Mostly Cloudy,240,2013-02-14 15:55:00
10:15 AM,39.2,31.5,74,29.70,10.0,WSW,17.3,23.0,N/A,,Mostly Cloudy,240,2013-02-14 16:15:00
10:35 AM,40.3,31.5,71,29.70,10.0,WSW,15.0,18.4,N/A,,Mostly Cloudy,240,2013-02-14 16:35:00
10:55 AM,40.6,30.9,68,29.71,10.0,WSW,11.5,24.2,N/A,,Mostly Cloudy,250,2013-02-14 16:55:00
11:15 AM,40.3,29.7,66,29.71,10.0,WSW,18.4,26.5,N/A,,Overcast,250,2013-02-14 17:15:00
11:35 AM,39.6,28.9,66,29.71,10.0,WSW,21.9,25.3,N/A,,Overcast,250,2013-02-14 17:35:00
11:55 AM,38.3,29.3,70,29.72,10.0,WSW,19.6,27.6,N/A,,Overcast,250,2013-02-14 17:55:00
12:15 PM,37.4,29.7,74,29.72,10.0,West,19.6,29.9,N/A,,Overcast,260,2013-02-14 18:15:00
12:35 PM,37.8,28.0,68,29.72,10.0,WSW,17.3,21.9,N/A,,Overcast,250,2013-02-14 18:35:00
12:55 PM,38.5,27.9,66,29.73,10.0,WSW,20.7,27.6,N/A,,Overcast,250,2013-02-14 18:55:00
1:15 PM,37.8,27.5,67,29.73,10.0,West,15.0,23.0,N/A,,Overcast,260,2013-02-14 19:15:00
1:35 PM,37.6,27.7,67,29.74,10.0,West,17.3,28.8,N/A,,Overcast,260,2013-02-14 19:35:00
1:55 PM,37.6,27.7,67,29.74,10.0,West,16.1,24.2,N/A,,Overcast,260,2013-02-14 19:55:00
2:15 PM,37.4,28.4,70,29.75,10.0,WSW,12.7,-,N/A,,Overcast,250,2013-02-14 20:15:00
2:35 PM,37.0,28.4,71,29.76,10.0,West,12.7,18.4,N/A,,Overcast,260,2013-02-14 20:35:00
2:55 PM,36.9,28.4,71,29.78,10.0,West,16.1,21.9,N/A,,Overcast,260,2013-02-14 20:55:00
3:15 PM,36.7,28.6,72,29.79,10.0,West,17.3,24.2,N/A,,Overcast,270,2013-02-14 21:15:00
3:35 PM,36.7,28.8,73,29.80,10.0,West,15.0,20.7,N/A,,Overcast,270,2013-02-14 21:35:00
3:55 PM,36.5,28.8,74,29.81,10.0,West,11.5,16.1,N/A,,Overcast,270,2013-02-14 21:55:00
4:15 PM,36.5,28.4,72,29.83,10.0,WNW,8.1,-,N/A,,Overcast,290,2013-02-14 22:15:00
4:35 PM,36.0,26.4,68,29.84,10.0,WNW,8.1,21.9,N/A,,Overcast,300,2013-02-14 22:35:00
4:55 PM,35.6,26.1,68,29.85,10.0,WNW,8.1,-,N/A,,Overcast,300,2013-02-14 22:55:00
5:15 PM,35.2,25.9,69,29.86,10.0,WNW,6.9,-,N/A,,Overcast,290,2013-02-14 23:15:00
5:35 PM,35.1,26.2,70,29.88,10.0,WNW,5.8,-,N/A,,Overcast,290,2013-02-14 23:35:00
5:55 PM,34.9,26.6,72,29.89,10.0,West,8.1,-,N/A,,Overcast,280,2013-02-14 23:55:00
6:15 PM,35.6,24.4,64,29.90,10.0,WNW,12.7,17.3,N/A,,Overcast,290,2013-02-15 00:15:00
6:35 PM,35.2,22.8,61,29.90,10.0,WNW,9.2,16.1,N/A,,Overcast,300,2013-02-15 00:35:00
6:55 PM,34.9,21.7,59,29.92,10.0,WNW,10.4,17.3,N/A,,Overcast,300,2013-02-15 00:55:00
7:15 PM,34.3,23.0,63,29.93,10.0,NW,12.7,18.4,N/A,,Overcast,310,2013-02-15 01:15:00
7:55 PM,33.8,21.0,60,29.94,10.0,NW,9.2,-,N/A,,Overcast,310,2013-02-15 01:55:00
8:15 PM,33.8,20.3,58,29.94,10.0,WNW,8.1,-,N/A,,Overcast,300,2013-02-15 02:15:00
8:35 PM,33.6,20.5,59,29.95,10.0,WNW,6.9,-,N/A,,Overcast,290,2013-02-15 02:35:00
8:55 PM,33.3,21.2,61,29.95,10.0,WNW,4.6,-,N/A,,Overcast,300,2013-02-15 02:55:00
9:15 PM,33.1,21.9,64,29.96,10.0,WNW,4.6,-,N/A,,Overcast,300,2013-02-15 03:15:00
9:35 PM,32.9,22.1,65,29.96,10.0,WNW,4.6,-,N/A,,Overcast,290,2013-02-15 03:35:00
9:55 PM,32.9,21.6,63,29.95,10.0,WNW,4.6,-,N/A,,Overcast,300,2013-02-15 03:55:00
10:15 PM,32.2,20.5,62,29.95,10.0,NW,8.1,-,N/A,,Mostly Cloudy,310,2013-02-15 04:15:00
10:35 PM,32.0,19.4,60,29.95,10.0,NW,8.1,-,N/A,,Mostly Cloudy,310,2013-02-15 04:35:00
10:55 PM,32.0,18.9,58,29.95,10.0,WNW,6.9,-,N/A,,Scattered Clouds,300,2013-02-15 04:55:00
11:15 PM,32.0,18.0,56,29.96,10.0,WNW,5.8,-,N/A,,Mostly Cloudy,290,2013-02-15 05:15:00
11:35 PM,32.0,17.6,55,29.96,10.0,WNW,4.6,-,N/A,,Overcast,290,2013-02-15 05:35:00
11:55 PM,30.9,17.6,58,29.96,10.0,West,5.8,-,N/A,,Mostly Cloudy,280,2013-02-15 05:55:00